Погода в Озерном крае

Великобритания     54°27′39″N   3°01′23″W
В апреле 2022 года жителям России запретили посещать сайт meteo.paraplan.net по решению Генеральной прокуратуры. Аудитория сайта уменьшилась в 10 раз. Владельцы сайта не видят смысла в поддержке погодного сервера в таких условиях. Сайт будет закрыт в октябре.
темп.,
°C
ветер,
м/с
пор.,
м/с
влажн.,
%
обл.,
%
осадки,
мм/ч
давл.,
гПа
погр.,
м
25 сентября, вс
вс2501:00+6зсз117429 0.0 102310
04:00+6зсз1180100 0.0 102210
07:00+5зсз118798 0.0 102110
10:00+9зюз2281100 0.0 1020283
13:00+11з4883100 0.1 1017903
16:00+11з51189100 0.2 1014824
19:00+11зюз6129399 0.4 1010868
22:00+10зюз71597100 1.0 10061004
26 сентября, пн
пн2601:00+10зсз9169382 1.4 1003981
04:00+8зсз8148995 0.3 10011072
07:00+6сз7148720 0.5 1002835
10:00+8ссз488190 0.1 10041041
13:00+9ссз8126889 0.3 10051440
16:00+9сз7117321 0.1 10041374
19:00+8зсз5118272 0.5 1004697
22:00+8зсз41185100 0.3 1003809
27 сентября, вт
вт2701:00+6зсз4119221 0.6 1002520
04:00+5сз7148747 0.1 1001827
07:00+5сз714857 0.2 1001909
10:00+7сз4108668 0.5 1000821
13:00+9сз8137946 0.8 9981301
16:00+8сз81386100 0.6 9971316
19:00+6сз33924 1.1 99951
22:00+5ссз33905 0.0 100038
28 сентября, ср
ср2801:00+4сз22915 0.0 100220
04:00+4ссз32916 0.0 100226
07:00+4сз22914 0.0 100323
10:00+8сз257854 0.0 1003351
13:00+10с357250 0.0 1004872
16:00+10с357199 0.1 10041082
19:00+7ссз118199 0.1 100510
22:00+8зсз117785 0.0 100512
29 сентября, чт
чт2901:00+6сз228858 0.0 100514
04:00+6ссз338991 0.0 100547
07:00+6сз3496100 1.4 1005173
10:00+8ссз4119493 0.0 1007572
13:00+11ссв5108796 0.1 1008942
16:00+11ссв4681100 0.2 1009688
19:00+8с33919 0.3 101238
22:00+7с228993 0.0 101314